When you browse on this site, cookies collect data to enhance your experience and personalize the content and advertising you see.
Visit our Privacy Policy to learn more. By continuing to use the site, you agree to this use of cookies and data.
  • In Sweden
  • List of Countries
  • For 7 days
  • Water Temperature
  • Weather Map
  • Weather Widgets
  • user-avatar
    Login

    Hourly Weather Trushniki

    Today, 21 September, Saturday

    Time Temperature Precipitation Wind Pressure Humidity
    00:00 +5°C° 0 mm 1 mps 747 mmHg 87%
    01:00 +4°C° 0 mm 2 mps 747 mmHg 87%
    02:00 +4°C° 0 mm 2 mps 747 mmHg 89%
    03:00 +3°C° 0 mm 2 mps 747 mmHg 91%
    04:00 +3°C° 0 mm 2 mps 746 mmHg 92%
    05:00 +3°C° 0 mm 2 mps 746 mmHg 94%
    06:00 +3°C° 0 mm 2 mps 746 mmHg 95%
    07:00 +2°C° 0 mm 3 mps 745 mmHg 97%
    08:00 +4°C° 0 mm 3 mps 745 mmHg 92%
    09:00 +6°C° 0 mm 4 mps 745 mmHg 86%
    10:00 +7°C° 0 mm 5 mps 745 mmHg 81%
    11:00 +8°C° 0.2 mm 5 mps 744 mmHg 78%
    12:00 +9°C° 0.2 mm 5 mps 743 mmHg 76%
    13:00 +10°C° 0.2 mm 5 mps 743 mmHg 73%
    14:00 +11°C° 0.3 mm 4 mps 743 mmHg 74%
    15:00 +11°C° 0.3 mm 4 mps 742 mmHg 75%
    16:00 +10°C° 0.3 mm 3 mps 742 mmHg 77%
    17:00 +9°C° 0.4 mm 3 mps 742 mmHg 81%
    18:00 +8°C° 0.4 mm 2 mps 742 mmHg 85%
    19:00 +7°C° 0.4 mm 2 mps 741 mmHg 89%
    20:00 +7°C° 0.1 mm 2 mps 741 mmHg 90%
    21:00 +6°C° 0.1 mm 2 mps 741 mmHg 90%
    22:00 +6°C° 0.1 mm 2 mps 740 mmHg 91%
    23:00 +5°C° 0 mm 2 mps 740 mmHg 92%

    Tomorrow, 22 September, Sunday

    Time Temperature Precipitation Wind Pressure Humidity
    00:00 +3°C° 0 mm 3 mps 739 mmHg 93%
    01:00 +2°C° 0 mm 3 mps 739 mmHg 94%
    02:00 +3°C° 0 mm 2 mps 739 mmHg 95%
    03:00 +2°C° 0 mm 2 mps 739 mmHg 95%
    04:00 +1°C° 0 mm 2 mps 738 mmHg 96%
    05:00 +1°C° 0 mm 2 mps 738 mmHg 95%
    06:00 +1°C° 0 mm 2 mps 738 mmHg 94%
    07:00 -1°C° 0 mm 2 mps 738 mmHg 93%
    08:00 +2°C° 0 mm 2 mps 738 mmHg 88%
    09:00 +3°C° 0 mm 2 mps 738 mmHg 83%
    10:00 +5°C° 0 mm 2 mps 738 mmHg 78%
    11:00 +6°C° 0 mm 2 mps 738 mmHg 76%
    12:00 +5°C° 0 mm 3 mps 738 mmHg 74%
    13:00 +5°C° 0 mm 3 mps 737 mmHg 72%
    14:00 +7°C° 0 mm 2 mps 737 mmHg 69%
    15:00 +7°C° 0 mm 2 mps 737 mmHg 66%
    16:00 +7°C° 0 mm 2 mps 737 mmHg 62%
    17:00 +6°C° 0 mm 2 mps 737 mmHg 69%
    18:00 +6°C° 0 mm 1 mps 737 mmHg 75%
    19:00 +4°C° 0 mm 1 mps 736 mmHg 81%
    20:00 +4°C° 0 mm 1 mps 736 mmHg 84%
    21:00 +4°C° 0 mm 1 mps 736 mmHg 87%
    22:00 +4°C° 0 mm 1 mps 736 mmHg 89%
    23:00 +4°C° 0 mm 1 mps 735 mmHg 90%

    Day after tomorrow, 23 September, Monday

    Time Temperature Precipitation Wind Pressure Humidity
    00:00 +3°C° 0 mm 2 mps 735 mmHg 91%
    01:00 +3°C° 0 mm 2 mps 734 mmHg 92%
    02:00 +3°C° 0.1 mm 2 mps 734 mmHg 92%
    03:00 +3°C° 0.1 mm 3 mps 733 mmHg 92%
    04:00 +3°C° 0.1 mm 3 mps 732 mmHg 91%
    05:00 +3°C° 0.3 mm 4 mps 731 mmHg 93%
    06:00 +3°C° 0.3 mm 4 mps 730 mmHg 94%
    07:00 +3°C° 0.3 mm 4 mps 729 mmHg 96%
    08:00 +3°C° 0.6 mm 4 mps 729 mmHg 96%
    09:00 +2°C° 0.6 mm 5 mps 728 mmHg 96%
    10:00 +2°C° 0.6 mm 5 mps 728 mmHg 96%
    11:00 +2°C° 1.3 mm 5 mps 728 mmHg 96%
    12:00 +1°C° 1.3 mm 5 mps 728 mmHg 96%
    13:00 +1°C° 1.3 mm 5 mps 728 mmHg 96%
    14:00 +2°C° 1 mm 5 mps 729 mmHg 96%
    15:00 +2°C° 1 mm 5 mps 729 mmHg 96%
    16:00 +2°C° 1 mm 6 mps 730 mmHg 95%
    17:00 +2°C° 0.3 mm 6 mps 731 mmHg 94%
    18:00 +1°C° 0.3 mm 5 mps 732 mmHg 93%
    19:00 +1°C° 0.3 mm 5 mps 732 mmHg 92%
    20:00 +1°C° 0.1 mm 5 mps 733 mmHg 91%
    21:00 +1°C° 0.1 mm 5 mps 734 mmHg 90%
    22:00 +1°C° 0.1 mm 5 mps 735 mmHg 89%
    23:00 +1°C° 0 mm 5 mps 736 mmHg 91%

    24 September, Tuesday

    Time Temperature Precipitation Wind Pressure Humidity
    00:00 +1°C° 0 mm 5 mps 737 mmHg 92%
    01:00 +1°C° 0 mm 4 mps 738 mmHg 94%
    02:00 0°C° 0 mm 4 mps 738 mmHg 94%
    03:00 0°C° 0 mm 4 mps 739 mmHg 95%
    04:00 0°C° 0 mm 4 mps 740 mmHg 96%
    05:00 0°C° 0.2 mm 4 mps 740 mmHg 96%
    06:00 0°C° 0.2 mm 4 mps 741 mmHg 96%
    07:00 -1°C° 0.2 mm 4 mps 741 mmHg 96%
    08:00 -1°C° 0.3 mm 4 mps 741 mmHg 95%
    09:00 0°C° 0.3 mm 4 mps 742 mmHg 93%
    10:00 0°C° 0.3 mm 5 mps 742 mmHg 91%
    11:00 0°C° 0.1 mm 5 mps 743 mmHg 87%
    12:00 +1°C° 0.1 mm 5 mps 743 mmHg 83%
    13:00 +2°C° 0.1 mm 5 mps 743 mmHg 79%
    14:00 +1°C° 0 mm 5 mps 743 mmHg 81%
    15:00 +1°C° 0 mm 5 mps 744 mmHg 83%
    16:00 +1°C° 0 mm 4 mps 744 mmHg 84%
    17:00 +1°C° 0.1 mm 4 mps 744 mmHg 86%
    18:00 0°C° 0.1 mm 4 mps 744 mmHg 88%
    19:00 0°C° 0.1 mm 4 mps 745 mmHg 90%
    20:00 0°C° 0 mm 4 mps 745 mmHg 89%
    21:00 -1°C° 0 mm 4 mps 745 mmHg 87%
    22:00 -1°C° 0 mm 4 mps 745 mmHg 85%
    23:00 -1°C° 0.1 mm 5 mps 745 mmHg 87%

    25 September, Wednesday

    Time Temperature Precipitation Wind Pressure Humidity
    00:00 -1°C° 0.1 mm 5 mps 745 mmHg 89%
    01:00 -1°C° 0.1 mm 5 mps 745 mmHg 91%
    02:00 -1°C° 0.1 mm 5 mps 745 mmHg 92%
    03:00 -1°C° 0.1 mm 5 mps 745 mmHg 93%
    04:00 -2°C° 0.1 mm 6 mps 745 mmHg 94%
    05:00 -1°C° 0.1 mm 5 mps 745 mmHg 95%
    06:00 -1°C° 0.1 mm 5 mps 745 mmHg 96%
    07:00 -1°C° 0.1 mm 4 mps 745 mmHg 96%
    08:00 -1°C° 0.1 mm 5 mps 746 mmHg 94%
    09:00 0°C° 0.1 mm 5 mps 746 mmHg 92%
    10:00 -1°C° 0.1 mm 6 mps 746 mmHg 89%
    11:00 +1°C° 0.2 mm 6 mps 746 mmHg 87%
    12:00 +1°C° 0.2 mm 6 mps 747 mmHg 84%
    13:00 +2°C° 0.2 mm 6 mps 747 mmHg 81%
    14:00 +2°C° 0.2 mm 6 mps 747 mmHg 82%
    15:00 +2°C° 0.2 mm 6 mps 747 mmHg 82%
    16:00 +2°C° 0.2 mm 6 mps 747 mmHg 83%
    17:00 +1°C° 0.1 mm 5 mps 747 mmHg 85%
    18:00 0°C° 0.1 mm 5 mps 747 mmHg 87%
    19:00 0°C° 0.1 mm 4 mps 748 mmHg 89%
    20:00 -1°C° 0 mm 4 mps 748 mmHg 90%
    21:00 -1°C° 0 mm 4 mps 748 mmHg 91%
    22:00 -2°C° 0 mm 4 mps 748 mmHg 92%
    23:00 -2°C° 0 mm 4 mps 748 mmHg 94%

    26 September, Thursday

    Time Temperature Precipitation Wind Pressure Humidity
    00:00 -2°C° 0 mm 4 mps 748 mmHg 95%
    01:00 -1°C° 0 mm 3 mps 748 mmHg 97%
    02:00 -3°C° 0 mm 4 mps 748 mmHg 96%
    03:00 -3°C° 0 mm 4 mps 748 mmHg 96%
    04:00 -3°C° 0 mm 4 mps 748 mmHg 96%
    05:00 -3°C° 0 mm 4 mps 748 mmHg 95%
    06:00 -3°C° 0 mm 4 mps 748 mmHg 95%
    07:00 -3°C° 0 mm 4 mps 748 mmHg 94%
    08:00 -2°C° 0 mm 5 mps 749 mmHg 90%
    09:00 -1°C° 0 mm 5 mps 749 mmHg 86%
    10:00 0°C° 0 mm 5 mps 749 mmHg 82%
    11:00 +1°C° 0.1 mm 5 mps 749 mmHg 80%
    12:00 +1°C° 0.1 mm 6 mps 749 mmHg 77%
    13:00 +1°C° 0.1 mm 6 mps 749 mmHg 75%
    14:00 +1°C° 0 mm 5 mps 749 mmHg 76%
    15:00 +1°C° 0 mm 5 mps 749 mmHg 77%
    16:00 +2°C° 0 mm 5 mps 750 mmHg 78%
    17:00 +1°C° 0 mm 4 mps 750 mmHg 82%
    18:00 0°C° 0 mm 4 mps 750 mmHg 87%
    19:00 0°C° 0 mm 3 mps 750 mmHg 91%
    20:00 0°C° 0 mm 3 mps 750 mmHg 92%
    21:00 0°C° 0 mm 3 mps 750 mmHg 92%
    22:00 0°C° 0 mm 3 mps 750 mmHg 93%
    23:00 -1°C° 0 mm 3 mps 750 mmHg 94%
    Show more